Location: Boullarre
(49.1305°N, 3.0047°E)
Time: 15:32:27
(UTC+00:00)

Cosmos 2322 Rocket - Pass Details

Date: 03 February 2023
Orbit: 831 x 851 km, 71.0° (Epoch: 25 March)

Event Time Altitude Azimuth Distance (km) Brightness Sun altitude
Rises 18:14:46 0° 201° (SSW) 3,363 5.7 -14.4°
Reaches altitude 10° 18:17:12 10° 200° (SSW) 2,433 5.0 -14.8°
Maximum altitude 18:22:46 76° 115° (ESE) 861 2.1 -15.7°
Drops below altitude 10° 18:28:23 10° 31° (NNE) 2,454 4.3 -16.7°
Enters shadow 18:28:27 10° 31° (NNE) 2,485 4.3 -16.7°
